When you browse on this site, cookies collect data to enhance your experience and personalize the content and advertising you see.
Visit our Privacy Policy to learn more. By continuing to use the site, you agree to this use of cookies and data.
  • In Deutschland
  • Länderverzeichnis
  • Für 7 Tage
  • Wassertemperatur
  • Satellitenkarten
  • Wetterkarte
  • Widgets
  • user-avatar
    Anmelden

    Stündliche Wetter Orscha

    Heute, 23 Mai, Donnerstag

    Zeit Temperatur Niederschläge Wind Luftdruck Luftfeuchtigkeit
    00:00 +15°C° 0 mm 1 m/S 739 mmHg 74%
    01:00 +15°C° 0 mm 1 m/S 739 mmHg 75%
    02:00 +14°C° 0 mm 1 m/S 739 mmHg 75%
    03:00 +14°C° 0 mm 1 m/S 739 mmHg 77%
    04:00 +14°C° 0 mm 1 m/S 739 mmHg 78%
    05:00 +14°C° 0 mm 2 m/S 739 mmHg 80%
    06:00 +16°C° 0 mm 2 m/S 739 mmHg 76%
    07:00 +18°C° 0 mm 2 m/S 740 mmHg 72%
    08:00 +20°C° 0 mm 2 m/S 740 mmHg 69%
    09:00 +21°C° 0 mm 2 m/S 740 mmHg 63%
    10:00 +23°C° 0 mm 2 m/S 740 mmHg 58%
    11:00 +24°C° 0 mm 3 m/S 740 mmHg 52%
    12:00 +25°C° 0 mm 3 m/S 740 mmHg 51%
    13:00 +25°C° 0 mm 3 m/S 739 mmHg 51%
    14:00 +25°C° 0 mm 3 m/S 739 mmHg 50%
    15:00 +25°C° 0 mm 3 m/S 739 mmHg 53%
    16:00 +25°C° 0 mm 3 m/S 739 mmHg 55%
    17:00 +25°C° 0 mm 2 m/S 739 mmHg 58%
    18:00 +23°C° 0 mm 2 m/S 739 mmHg 64%
    19:00 +20°C° 0 mm 2 m/S 739 mmHg 70%
    20:00 +19°C° 0 mm 2 m/S 739 mmHg 76%
    21:00 +18°C° 0 mm 2 m/S 739 mmHg 79%
    22:00 +18°C° 0 mm 1 m/S 739 mmHg 83%
    23:00 +16°C° 0 mm 1 m/S 739 mmHg 86%

    Morgen, 24 Mai, Freitag

    Zeit Temperatur Niederschläge Wind Luftdruck Luftfeuchtigkeit
    00:00 +16°C° 0 mm 1 m/S 739 mmHg 87%
    01:00 +16°C° 0 mm 1 m/S 739 mmHg 88%
    02:00 +15°C° 0 mm 1 m/S 739 mmHg 89%
    03:00 +15°C° 0 mm 1 m/S 739 mmHg 89%
    04:00 +15°C° 0 mm 1 m/S 739 mmHg 90%
    05:00 +16°C° 0 mm 1 m/S 739 mmHg 90%
    06:00 +18°C° 0 mm 1 m/S 739 mmHg 85%
    07:00 +20°C° 0 mm 1 m/S 740 mmHg 79%
    08:00 +22°C° 0 mm 1 m/S 740 mmHg 74%
    09:00 +23°C° 0.9 mm 1 m/S 740 mmHg 70%
    10:00 +24°C° 0.9 mm 1 m/S 740 mmHg 65%
    11:00 +25°C° 0.9 mm 2 m/S 740 mmHg 61%
    12:00 +25°C° 1.7 mm 2 m/S 740 mmHg 61%
    13:00 +25°C° 1.7 mm 1 m/S 740 mmHg 61%
    14:00 +25°C° 1.7 mm 1 m/S 740 mmHg 62%
    15:00 +24°C° 0.9 mm 2 m/S 739 mmHg 67%
    16:00 +23°C° 0.9 mm 2 m/S 739 mmHg 73%
    17:00 +21°C° 0.9 mm 3 m/S 739 mmHg 79%
    18:00 +20°C° 0.3 mm 3 m/S 739 mmHg 82%
    19:00 +19°C° 0.3 mm 2 m/S 739 mmHg 85%
    20:00 +18°C° 0.3 mm 2 m/S 739 mmHg 88%
    21:00 +18°C° 0.1 mm 2 m/S 739 mmHg 88%
    22:00 +17°C° 0.1 mm 2 m/S 739 mmHg 89%
    23:00 +17°C° 0.1 mm 2 m/S 739 mmHg 90%

    übermorgen, 25 Mai, Samstag

    Zeit Temperatur Niederschläge Wind Luftdruck Luftfeuchtigkeit
    00:00 +16°C° 0.4 mm 2 m/S 738 mmHg 91%
    01:00 +16°C° 0.4 mm 2 m/S 738 mmHg 91%
    02:00 +16°C° 0.4 mm 1 m/S 738 mmHg 92%
    03:00 +16°C° 0.1 mm 1 m/S 738 mmHg 92%
    04:00 +16°C° 0.1 mm 1 m/S 738 mmHg 92%
    05:00 +15°C° 0.1 mm 0 m/S 738 mmHg 92%
    06:00 +18°C° 0 mm 1 m/S 738 mmHg 89%
    07:00 +19°C° 0 mm 1 m/S 738 mmHg 87%
    08:00 +19°C° 0 mm 2 m/S 738 mmHg 84%
    09:00 +20°C° 0.4 mm 3 m/S 738 mmHg 82%
    10:00 +20°C° 0.4 mm 4 m/S 737 mmHg 81%
    11:00 +21°C° 0.4 mm 5 m/S 737 mmHg 80%
    12:00 +21°C° 0.2 mm 4 m/S 737 mmHg 77%
    13:00 +21°C° 0.2 mm 4 m/S 737 mmHg 73%
    14:00 +22°C° 0.2 mm 4 m/S 737 mmHg 70%
    15:00 +21°C° 0.3 mm 3 m/S 737 mmHg 69%
    16:00 +21°C° 0.3 mm 3 m/S 737 mmHg 68%
    17:00 +21°C° 0.3 mm 3 m/S 736 mmHg 68%
    18:00 +20°C° 0 mm 3 m/S 736 mmHg 72%
    19:00 +18°C° 0 mm 3 m/S 736 mmHg 76%
    20:00 +16°C° 0 mm 3 m/S 737 mmHg 80%
    21:00 +14°C° 0 mm 3 m/S 737 mmHg 84%
    22:00 +13°C° 0 mm 3 m/S 737 mmHg 88%
    23:00 +12°C° 0 mm 3 m/S 737 mmHg 91%

    26 Mai, Sonntag

    Zeit Temperatur Niederschläge Wind Luftdruck Luftfeuchtigkeit
    00:00 +11°C° 0 mm 3 m/S 737 mmHg 92%
    01:00 +10°C° 0 mm 3 m/S 737 mmHg 93%
    02:00 +9°C° 0 mm 3 m/S 737 mmHg 94%
    03:00 +9°C° 0 mm 3 m/S 738 mmHg 93%
    04:00 +9°C° 0 mm 3 m/S 738 mmHg 93%
    05:00 +9°C° 0 mm 3 m/S 738 mmHg 93%
    06:00 +10°C° 0 mm 3 m/S 738 mmHg 87%
    07:00 +11°C° 0 mm 4 m/S 738 mmHg 82%
    08:00 +12°C° 0 mm 4 m/S 738 mmHg 76%
    09:00 +13°C° 0 mm 4 m/S 738 mmHg 75%
    10:00 +13°C° 0 mm 4 m/S 738 mmHg 74%
    11:00 +14°C° 0 mm 4 m/S 738 mmHg 73%
    12:00 +15°C° 0 mm 5 m/S 738 mmHg 69%
    13:00 +16°C° 0 mm 5 m/S 738 mmHg 66%
    14:00 +17°C° 0 mm 5 m/S 737 mmHg 62%
    15:00 +17°C° 0.1 mm 5 m/S 737 mmHg 64%
    16:00 +18°C° 0.1 mm 4 m/S 737 mmHg 66%
    17:00 +17°C° 0.1 mm 4 m/S 737 mmHg 68%
    18:00 +15°C° 0.3 mm 5 m/S 736 mmHg 74%
    19:00 +13°C° 0.3 mm 5 m/S 736 mmHg 80%
    20:00 +10°C° 0.3 mm 6 m/S 736 mmHg 86%
    21:00 +9°C° 0.1 mm 5 m/S 736 mmHg 88%
    22:00 +9°C° 0.1 mm 5 m/S 736 mmHg 90%
    23:00 +8°C° 0.1 mm 4 m/S 736 mmHg 92%

    27 Mai, Montag

    Zeit Temperatur Niederschläge Wind Luftdruck Luftfeuchtigkeit
    00:00 +7°C° 0.2 mm 4 m/S 736 mmHg 92%
    01:00 +7°C° 0.2 mm 4 m/S 737 mmHg 92%
    02:00 +7°C° 0.2 mm 4 m/S 737 mmHg 91%
    03:00 +7°C° 0.2 mm 4 m/S 737 mmHg 92%
    04:00 +6°C° 0.2 mm 5 m/S 737 mmHg 92%
    05:00 +6°C° 0.2 mm 5 m/S 738 mmHg 93%
    06:00 +7°C° 0.1 mm 5 m/S 738 mmHg 89%
    07:00 +7°C° 0.1 mm 5 m/S 739 mmHg 85%
    08:00 +8°C° 0.1 mm 6 m/S 739 mmHg 81%
    09:00 +9°C° 0 mm 6 m/S 740 mmHg 77%
    10:00 +10°C° 0 mm 6 m/S 740 mmHg 73%
    11:00 +11°C° 0 mm 6 m/S 741 mmHg 69%
    12:00 +11°C° 0 mm 6 m/S 741 mmHg 70%
    13:00 +13°C° 0 mm 6 m/S 742 mmHg 71%
    14:00 +13°C° 0 mm 6 m/S 742 mmHg 73%
    15:00 +14°C° 0 mm 5 m/S 742 mmHg 71%
    16:00 +14°C° 0 mm 5 m/S 742 mmHg 70%
    17:00 +15°C° 0 mm 5 m/S 743 mmHg 69%
    18:00 +14°C° 0 mm 4 m/S 743 mmHg 74%
    19:00 +13°C° 0 mm 4 m/S 743 mmHg 80%
    20:00 +11°C° 0 mm 3 m/S 743 mmHg 85%
    21:00 +11°C° 0 mm 3 m/S 743 mmHg 87%
    22:00 +10°C° 0 mm 3 m/S 743 mmHg 89%
    23:00 +9°C° 0 mm 3 m/S 744 mmHg 91%

    28 Mai, Dienstag

    Zeit Temperatur Niederschläge Wind Luftdruck Luftfeuchtigkeit
    00:00 +9°C° 0 mm 3 m/S 744 mmHg 92%
    01:00 +9°C° 0 mm 3 m/S 744 mmHg 93%
    02:00 +9°C° 0 mm 3 m/S 744 mmHg 95%
    03:00 +9°C° 0 mm 3 m/S 744 mmHg 94%
    04:00 +9°C° 0 mm 3 m/S 744 mmHg 94%
    05:00 +10°C° 0 mm 3 m/S 744 mmHg 93%
    06:00 +11°C° 0 mm 4 m/S 744 mmHg 88%
    07:00 +13°C° 0 mm 4 m/S 744 mmHg 83%
    08:00 +15°C° 0 mm 4 m/S 745 mmHg 78%
    09:00 +18°C° 0 mm 4 m/S 744 mmHg 73%
    10:00 +19°C° 0 mm 4 m/S 744 mmHg 68%
    11:00 +20°C° 0 mm 4 m/S 744 mmHg 64%
    12:00 +21°C° 0 mm 4 m/S 744 mmHg 62%
    13:00 +21°C° 0 mm 4 m/S 744 mmHg 61%
    14:00 +22°C° 0 mm 5 m/S 744 mmHg 60%
    15:00 +21°C° 0.3 mm 5 m/S 744 mmHg 68%
    16:00 +20°C° 0.3 mm 5 m/S 743 mmHg 76%
    17:00 +19°C° 0.3 mm 5 m/S 743 mmHg 85%
    18:00 +17°C° 4.1 mm 5 m/S 743 mmHg 88%
    19:00 +16°C° 4.1 mm 5 m/S 742 mmHg 92%
    20:00 +15°C° 4.1 mm 6 m/S 742 mmHg 95%
    21:00 +16°C° 1.5 mm 6 m/S 742 mmHg 94%
    22:00 +16°C° 1.5 mm 7 m/S 741 mmHg 94%
    23:00 +17°C° 1.5 mm 7 m/S 741 mmHg 93%
    Mehr zeigen